Istanbul, Turkey

10:22 AM +03 on July 26, 2017 (GMT +0300)
Ataturk

Weather History for LTBA - June, 2014

Change the Weather History Date:

Saturday, June 14, 2014

  Actual Average Record
Temperature  
Mean Temperature 74 °F -  
Max Temperature 81 °F 80 °F 89 °F (2007)
Min Temperature 68 °F 66 °F 59 °F (2006)
Cooling Degree Days 10    
Growing Degree Days 24 (Base 50)    
Moisture  
Dew Point 62 °F    
Average Humidity 64    
Maximum Humidity 83    
Minimum Humidity 41    
Precipitation  
Precipitation 0.00 in - - ()
Sea Level Pressure  
Sea Level Pressure 29.80 in    
Wind  
Wind Speed 5 mph ()    
Max Wind Speed 17 mph    
Max Gust Speed -    
Visibility 6.1 miles    
Events      
Averages and records for this station are not official NWS values.
T = Trace of Precipitation, MM = Missing Value Source: Averaged Metar Reports

Daily Weather History Graph

Daily Weather History Graph

Search for Another Location

Airport or City:

Trip Planner

Search our weather history database for the weather conditions in past years. The results will help you decide how hot, cold, wet, or windy it might be!

Date:

Astronomy

Jun. 14, 2014 Rise Set
Actual Time 5:32 AM EEST 8:37 PM EEST
Civil Twilight 4:58 AM EEST 9:11 PM EEST
Nautical Twilight 4:15 AM EEST 9:54 PM EEST
Astronomical Twilight 3:25 AM EEST 10:45 PM EEST
Moon 9:43 PM EEST (6/14) 6:54 AM EEST (6/14)
Length of Visible Light 16h 12m
Length of Day
15h 05m
Full, 98% of the Moon is Illuminated
Jun 14
Full
Jun 19
Last Quarter
Jun 27
New
Jul 5
First Quarter
Jul 12
Full

Hourly Weather History & Observations

Time (EEST) Temp. Heat Index Dew Point Humidity Pressure Visibility Wind Dir Wind Speed Gust Speed Precip Events Conditions
12:00 AM 71 °F - 62 °F 65% 29.84 in 6 mi SW 1.2 mph - -  
12:50 AM 71.6 °F - 59.0 °F 64% 29.83 in - Variable 1.2 mph - N/A   Clear
1:50 AM 71.6 °F - 60.8 °F 69% 29.83 in - Variable 2.3 mph - N/A   Clear
2:20 AM 69.8 °F - 62.6 °F 78% 29.83 in - SE 3.5 mph - N/A   Clear
3:00 AM 69 °F - 58 °F 60% 29.82 in 6 mi South 2.3 mph - -  
3:50 AM 69.8 °F - 57.2 °F 64% 29.80 in - Variable 2.3 mph - N/A   Clear
4:20 AM 69.8 °F - 60.8 °F 73% 29.80 in - SE 3.5 mph - N/A   Clear
4:50 AM 69.8 °F - 60.8 °F 73% 29.80 in - Variable 2.3 mph - N/A   Clear
5:20 AM 69.8 °F - 60.8 °F 73% 29.80 in - Variable 2.3 mph - N/A   Clear
5:50 AM 69.8 °F - 60.8 °F 73% 29.80 in - Variable 2.3 mph - N/A   Clear
6:00 AM 69 °F - 61 °F 68% 29.81 in 6 mi SE 2.3 mph - -  
6:20 AM 69.8 °F - 59.0 °F 68% 29.80 in - ESE 2.3 mph - N/A   Clear
6:50 AM 71.6 °F - 64.4 °F 78% 29.80 in - East 4.6 mph - N/A   Clear
7:20 AM 71.6 °F - 66.2 °F 83% 29.80 in - Variable 2.3 mph - N/A   Clear
7:50 AM 71.6 °F - 64.4 °F 78% 29.80 in - South 4.6 mph - N/A   Clear
8:20 AM 73.4 °F - 62.6 °F 69% 29.80 in - South 4.6 mph - N/A   Clear
8:50 AM 73.4 °F - 64.4 °F 73% 29.83 in - SW 4.6 mph - N/A   Clear
9:00 AM 73 °F - 64 °F 65% 29.83 in 6 mi SW 4.6 mph - -  
9:20 AM 73.4 °F - 62.6 °F 69% 29.83 in - WSW 6.9 mph - N/A   Clear
9:50 AM 73.4 °F - 64.4 °F 73% 29.83 in - SW 10.4 mph - N/A   Clear
10:20 AM 73.4 °F - 64.4 °F 73% 29.80 in - SSW 11.5 mph - N/A   Clear
10:50 AM 73.4 °F - 62.6 °F 69% 29.80 in - SSW 10.4 mph - N/A   Clear
11:20 AM 75.2 °F - 62.6 °F 65% 29.80 in - SSW 10.4 mph - N/A   Clear
11:50 AM 75.2 °F - 62.6 °F 65% 29.80 in - SSW 9.2 mph - N/A   Clear
12:00 PM 76 °F - 61 °F 51% 29.82 in 6 mi SSW 9.2 mph - -  
12:20 PM 77.0 °F - 62.6 °F 61% 29.80 in - SSW 8.1 mph - N/A   Clear
12:50 PM 77.0 °F - 62.6 °F 61% 29.80 in 6.2 mi SSW 6.9 mph - N/A   Partly Cloudy
1:20 PM 77.0 °F - 64.4 °F 65% 29.80 in 6.2 mi SSW 8.1 mph - N/A   Partly Cloudy
1:50 PM 77.0 °F - 64.4 °F 65% 29.80 in 6.2 mi SW 9.2 mph - N/A   Partly Cloudy
2:20 PM 78.8 °F - 62.6 °F 57% 29.80 in 6.2 mi SSW 9.2 mph - N/A   Partly Cloudy
2:50 PM 80.6 °F 81.8 °F 62.6 °F 54% 29.77 in 6.2 mi SSW 8.1 mph - N/A   Partly Cloudy
3:00 PM 80 °F - 61 °F 43% 29.79 in 6 mi SSW 8.1 mph - -   Scattered Clouds
3:20 PM 80.6 °F 81.5 °F 60.8 °F 51% 29.77 in 6.2 mi SSW 8.1 mph - N/A   Scattered Clouds
3:50 PM 78.8 °F - 60.8 °F 54% 29.77 in 6.2 mi SSW 8.1 mph - N/A   Scattered Clouds
4:20 PM 78.8 °F - 60.8 °F 54% 29.77 in 6.2 mi SW 6.9 mph - N/A   Scattered Clouds
4:50 PM 77.0 °F - 64.4 °F 65% 29.77 in 6.2 mi SSW 5.8 mph - N/A   Scattered Clouds
5:20 PM 77.0 °F - 62.6 °F 61% 29.77 in 6.2 mi WSW 5.8 mph - N/A   Scattered Clouds
5:50 PM 80.6 °F 81.8 °F 62.6 °F 54% 29.77 in 6.2 mi WNW 9.2 mph - N/A   Mostly Cloudy
6:00 PM 81 °F - 61 °F 41% 29.78 in 6 mi WNW 9.2 mph - -   Partly Cloudy
6:20 PM 78.8 °F - 59.0 °F 51% 29.77 in 6.2 mi North 12.7 mph - N/A   Mostly Cloudy
6:50 PM 78.8 °F - 59.0 °F 51% 29.77 in 6.2 mi North 11.5 mph - N/A   Mostly Cloudy
7:20 PM 78.8 °F - 60.8 °F 54% 29.77 in 6.2 mi North 11.5 mph - N/A   Mostly Cloudy
7:50 PM 77.0 °F - 60.8 °F 57% 29.77 in 6.2 mi North 17.3 mph - N/A   Mostly Cloudy
8:20 PM 75.2 °F - 60.8 °F 61% 29.80 in 6.2 mi North 17.3 mph - N/A   Mostly Cloudy
8:50 PM 77.0 °F - 62.6 °F 61% 29.80 in 6.2 mi NNE 10.4 mph - N/A   Mostly Cloudy
9:00 PM 76 °F - 62 °F 52% 29.79 in 6 mi NNE 10.4 mph - -   Partly Cloudy
9:20 PM 77.0 °F - 62.6 °F 61% 29.80 in 6.2 mi NE 8.1 mph - N/A   Mostly Cloudy
9:50 PM 75.2 °F - 62.6 °F 65% 29.80 in 6.2 mi North 9.2 mph - N/A   Scattered Clouds
10:20 PM 75.2 °F - 62.6 °F 65% 29.83 in 6.2 mi NNE 4.6 mph - N/A   Scattered Clouds
10:50 PM 75.2 °F - 62.6 °F 65% 29.83 in - NE 5.8 mph - N/A   Clear
11:20 PM 73.4 °F - 62.6 °F 69% 29.83 in - NE 9.2 mph - N/A   Clear
11:50 PM 73.4 °F - 62.6 °F 69% 29.83 in - ENE 6.9 mph - N/A   Clear